TimeCST,TemperatureF,Dew PointF,Humidity,Sea Level PressureIn,VisibilityMPH,Wind Direction,Wind SpeedMPH,Gust SpeedMPH,PrecipitationIn,Events,Conditions,WindDirDegrees,DateUTC
12:13 AM,5.4,2.7,89,30.24,4.0,WNW,4.6,-,N/A,Snow,Light Snow,300,2013-02-16 06:13:00
12:33 AM,6.6,3.9,89,30.24,3.0,NW,3.5,-,N/A,Snow,Light Snow,320,2013-02-16 06:33:00
12:53 AM,6.8,4.1,89,30.23,4.0,NNW,3.5,-,N/A,Snow,Light Snow,330,2013-02-16 06:53:00
1:13 AM,7.2,4.5,89,30.23,4.0,NW,3.5,-,N/A,Snow,Light Snow,320,2013-02-16 07:13:00
1:33 AM,7.2,4.5,89,30.23,5.0,NW,3.5,-,N/A,Snow,Light Snow,320,2013-02-16 07:33:00
1:53 AM,7.2,4.5,89,30.23,3.0,NW,3.5,-,N/A,Snow,Light Snow,320,2013-02-16 07:53:00
2:13 AM,7.0,4.3,89,30.22,5.0,Calm,Calm,-,N/A,Snow,Light Snow,0,2013-02-16 08:13:00
2:33 AM,7.0,4.3,89,30.21,3.0,Calm,Calm,-,N/A,Snow,Light Snow,0,2013-02-16 08:33:00
2:52 AM,7.0,4.3,89,30.21,3.0,Calm,Calm,-,N/A,Snow,Light Snow,0,2013-02-16 08:52:00
3:13 AM,7.0,4.3,89,30.20,4.0,Calm,Calm,-,N/A,Snow,Light Snow,0,2013-02-16 09:13:00
3:33 AM,6.8,4.1,89,30.19,4.0,Calm,Calm,-,N/A,Snow,Light Snow,0,2013-02-16 09:33:00
3:53 AM,6.8,4.1,89,30.19,2.5,Calm,Calm,-,N/A,Snow,Light Snow,0,2013-02-16 09:53:00
4:13 AM,6.6,3.9,89,30.18,5.0,Calm,Calm,-,N/A,Snow,Light Snow,0,2013-02-16 10:13:00
4:33 AM,6.6,4.1,89,30.18,4.0,Calm,Calm,-,N/A,Snow,Light Snow,0,2013-02-16 10:33:00
4:53 AM,6.6,3.9,89,30.17,7.0,Calm,Calm,-,N/A,Snow,Light Snow,0,2013-02-16 10:53:00
5:13 AM,6.3,3.7,89,30.17,7.0,Calm,Calm,-,N/A,Snow,Light Snow,0,2013-02-16 11:13:00
5:33 AM,6.4,3.9,89,30.17,7.0,Calm,Calm,-,N/A,Snow,Light Snow,0,2013-02-16 11:33:00
5:53 AM,6.3,3.6,89,30.16,5.0,Calm,Calm,-,N/A,Snow,Light Snow,0,2013-02-16 11:53:00
6:13 AM,6.1,3.4,89,30.17,5.0,Calm,Calm,-,N/A,Snow,Light Snow,0,2013-02-16 12:13:00
6:33 AM,6.1,3.4,89,30.17,7.0,Calm,Calm,-,N/A,Snow,Light Snow,0,2013-02-16 12:33:00
6:53 AM,5.9,3.2,89,30.17,5.0,Calm,Calm,-,N/A,Snow,Light Snow,0,2013-02-16 12:53:00
7:13 AM,5.9,3.2,89,30.17,7.0,Calm,Calm,-,N/A,Snow,Light Snow,0,2013-02-16 13:13:00
7:32 AM,5.9,3.4,89,30.17,4.0,Calm,Calm,-,N/A,Snow,Light Snow,0,2013-02-16 13:32:00
7:53 AM,6.1,3.4,89,30.17,3.0,Calm,Calm,-,N/A,Snow,Light Snow,0,2013-02-16 13:53:00
8:12 AM,6.3,3.6,89,30.16,1.0,Calm,Calm,-,N/A,Snow,Light Snow,0,2013-02-16 14:12:00
8:33 AM,6.3,3.7,89,30.16,1.0,Calm,Calm,-,N/A,Snow,Light Snow,0,2013-02-16 14:33:00
8:53 AM,6.3,3.6,89,30.16,1.5,Calm,Calm,-,N/A,Snow,Light Snow,0,2013-02-16 14:53:00
9:12 AM,6.4,3.7,89,30.15,1.0,Calm,Calm,-,N/A,Snow,Light Snow,0,2013-02-16 15:12:00
9:33 AM,6.8,4.1,89,30.15,1.0,Calm,Calm,-,N/A,Snow,Light Snow,0,2013-02-16 15:33:00
9:53 AM,7.0,4.3,89,30.15,3.0,SE,6.9,-,N/A,Snow,Light Snow,130,2013-02-16 15:53:00
10:13 AM,7.5,4.8,89,30.15,3.0,ESE,5.8,-,N/A,Snow,Light Snow,120,2013-02-16 16:13:00
10:32 AM,8.4,5.9,89,30.15,3.0,SSE,4.6,-,N/A,Snow,Light Snow,150,2013-02-16 16:32:00
10:53 AM,8.6,6.1,89,30.15,5.0,SE,4.6,-,N/A,Snow,Light Snow,130,2013-02-16 16:53:00
11:13 AM,8.4,5.9,89,30.15,5.0,SSE,3.5,-,N/A,Snow,Light Snow,160,2013-02-16 17:13:00
11:33 AM,8.4,6.1,90,30.15,5.0,SSE,4.6,-,N/A,Snow,Light Snow,150,2013-02-16 17:33:00
11:53 AM,8.8,6.1,89,30.15,10.0,SSE,4.6,-,N/A,,Clear,160,2013-02-16 17:53:00
12:13 PM,9.7,6.4,87,30.14,10.0,SSE,4.6,-,N/A,,Clear,150,2013-02-16 18:13:00
12:32 PM,10.0,4.6,79,30.13,10.0,SSE,5.8,-,N/A,,Clear,150,2013-02-16 18:32:00
12:53 PM,10.8,4.3,75,30.12,10.0,SE,5.8,-,N/A,,Clear,140,2013-02-16 18:53:00
1:13 PM,10.8,4.3,75,30.11,10.0,SSE,8.1,-,N/A,,Clear,160,2013-02-16 19:13:00
1:33 PM,10.6,4.1,75,30.11,10.0,SSE,8.1,-,N/A,,Clear,150,2013-02-16 19:33:00
1:53 PM,11.8,4.8,73,30.10,10.0,SSE,5.8,-,N/A,,Clear,150,2013-02-16 19:53:00
2:13 PM,12.0,5.0,73,30.11,10.0,SSE,6.9,-,N/A,,Clear,160,2013-02-16 20:13:00
2:33 PM,12.9,5.5,72,30.10,10.0,SE,5.8,-,N/A,,Clear,130,2013-02-16 20:33:00
2:53 PM,12.7,5.2,72,30.09,10.0,SSE,5.8,-,N/A,,Clear,150,2013-02-16 20:53:00
3:13 PM,12.6,5.0,72,30.09,10.0,SE,6.9,-,N/A,,Clear,140,2013-02-16 21:13:00
3:33 PM,13.6,5.2,69,30.09,10.0,SE,6.9,-,N/A,,Clear,140,2013-02-16 21:33:00
3:53 PM,12.7,5.0,71,30.10,10.0,SSE,6.9,-,N/A,,Clear,160,2013-02-16 21:53:00
4:13 PM,12.7,4.8,71,30.10,10.0,SSE,6.9,-,N/A,,Clear,150,2013-02-16 22:13:00
4:33 PM,12.4,4.8,72,30.10,10.0,SE,8.1,-,N/A,,Clear,130,2013-02-16 22:33:00
4:53 PM,11.7,4.5,73,30.10,10.0,SE,5.8,-,N/A,,Mostly Cloudy,140,2013-02-16 22:53:00
5:13 PM,11.3,4.5,74,30.10,10.0,SE,5.8,-,N/A,,Overcast,130,2013-02-16 23:13:00
5:33 PM,11.1,4.8,76,30.10,10.0,ESE,4.6,-,N/A,,Overcast,120,2013-02-16 23:33:00
5:53 PM,11.1,5.0,76,30.10,10.0,ESE,5.8,-,N/A,,Overcast,120,2013-02-16 23:53:00
6:13 PM,11.1,5.0,76,30.11,10.0,ESE,3.5,-,N/A,,Overcast,120,2013-02-17 00:13:00
6:33 PM,10.9,5.0,77,30.10,10.0,East,4.6,-,N/A,,Overcast,100,2013-02-17 00:33:00
6:53 PM,10.9,5.0,77,30.10,10.0,ESE,3.5,-,N/A,,Overcast,110,2013-02-17 00:53:00
7:13 PM,10.9,5.4,78,30.09,10.0,East,4.6,-,N/A,,Overcast,90,2013-02-17 01:13:00
7:33 PM,10.9,5.2,78,30.09,10.0,ESE,5.8,-,N/A,,Overcast,110,2013-02-17 01:33:00
7:53 PM,11.3,5.5,78,30.08,10.0,ESE,3.5,-,N/A,,Overcast,120,2013-02-17 01:53:00
8:13 PM,11.7,5.7,77,30.08,10.0,SE,4.6,-,N/A,,Overcast,130,2013-02-17 02:13:00
8:33 PM,11.7,5.7,77,30.08,10.0,ESE,4.6,-,N/A,,Overcast,120,2013-02-17 02:33:00
8:53 PM,11.8,5.9,77,30.08,10.0,ESE,4.6,-,N/A,,Overcast,110,2013-02-17 02:53:00
9:13 PM,12.2,5.9,76,30.07,10.0,ESE,4.6,-,N/A,,Overcast,120,2013-02-17 03:13:00
9:33 PM,12.2,5.9,76,30.07,10.0,ESE,3.5,-,N/A,,Overcast,110,2013-02-17 03:33:00
9:53 PM,12.4,6.3,76,30.07,10.0,ESE,4.6,-,N/A,,Overcast,110,2013-02-17 03:53:00
10:13 PM,12.7,6.4,76,30.06,10.0,ESE,5.8,-,N/A,,Overcast,120,2013-02-17 04:13:00
10:33 PM,13.1,6.8,76,30.06,10.0,ESE,6.9,-,N/A,,Overcast,110,2013-02-17 04:33:00
10:53 PM,12.4,6.1,76,30.05,10.0,ESE,6.9,-,N/A,,Mostly Cloudy,120,2013-02-17 04:53:00
11:12 PM,11.5,5.5,77,30.05,10.0,ESE,5.8,-,N/A,,Scattered Clouds,110,2013-02-17 05:12:00
11:33 PM,11.1,5.4,78,30.04,10.0,SE,5.8,-,N/A,,Clear,130,2013-02-17 05:33:00
11:53 PM,10.4,4.8,78,30.04,10.0,SE,6.9,-,N/A,,Clear,140,2013-02-17 05:53:00